Regional Weather Roundup
Issued by NWS

Home | Current Version | Previous Version | Text Only | Print | Product List | Glossary On
Versions: 1 2 3 4 5 6 7 8 9 10 11 12 13 14 15 16 17 18 19 20 21 22 23 24 25 26 27 28 29 30 31 32 33 34 35 36 37 38 39 40 41 42 43 44 45 46 47 48 49 50
000
ASUS44 KFWD 260903
RWRTX
NORTH TEXAS HOURLY WEATHER ROUNDUP
NATIONAL WEATHER SERVICE FORT WORTH TX
400 AM CDT SAT MAY 26 2018

NOTE: "FAIR" INDICATES FEW OR NO CLOUDS BELOW 12,000 FEET WITH NO
SIGNIFICANT WEATHER AND/OR OBSTRUCTIONS TO VISIBILITY.

TXZ118-119-261000-
DALLAS/FORT WORTH METROPLEX

CITY           SKY/WX    TMP DP  RH WIND       PRES   REMARKS
DFW AIRPORT    FAIR      73  67  81 E9        29.80S
DALLAS LOVE    FAIR      74  67  78 E8        29.81S
FTW MEACHAM    FAIR      78  68  71 E5        29.81R
DAL-EXECUTIVE  FAIR      72  66  81 E8        29.81R
FTW-ALLIANCE   MOCLDY    76  67  73 E7        29.81R
FTW-NAS-JRB    FAIR      77  66  68 NE3       29.81R
FTW-SPINKS     FAIR      73  66  78 CALM      29.82R
ARLINGTON      FAIR      74  67  78 NE9       29.80R
GRAND PRAIRIE  FAIR      74  64  72 NE9       29.82R
MESQUITE       FAIR      69  66  90 SE6       29.82F
LANCASTER      FAIR      70  66  88 E7        29.83S
$$

TXZ091>094-102>105-117-120-121-131>134-261000-
NORTH CENTRAL TEXAS

CITY           SKY/WX    TMP DP  RH WIND       PRES   REMARKS
SHRMAN/DENISON NOT AVBL
GAINESVILLE    FAIR      69  64  83 CALM      29.86R
BOWIE          FAIR      69  64  84 CALM      29.85S
DECATUR        FAIR      70  64  82 CALM      29.85R
DENTON         FAIR      74  66  76 SE6       29.82R
MCKINNEY       FAIR      70  67  90 S5        29.82F
BONHAM         FAIR      68  65  93 CALM      29.83F
ROCKWALL       FAIR      71  68  90 E10       29.83F
TERRELL        FAIR      72  66  81 SE3       29.83F
WAXAHACHIE     FAIR      70  66  87 E6        29.83R
CLEBURNE       FAIR      72  70  94 S9        29.81S
$$

TXZ083>090-098>101-113>116-127>130-139>142-154-155-261000-
WESTERN NORTH TEXAS

CITY           SKY/WX    TMP DP  RH WIND       PRES   REMARKS
WICHITA FALLS  FAIR      66  60  81 E6        29.83R
WF-KICKAPOO    FAIR      68  62  80 CALM      29.85S
VERNON         FAIR      71  63  76 NE3       29.85F
ABILENE        FAIR      70  54  56 S8        29.84F
ABILENE-DYESS  FAIR      71  51  48 S8        29.84F
CISCO          FAIR      72  55  56 SW13      29.84S
EASTLAND       FAIR      69  57  64 SW5       29.82F
RANGER         FAIR      70  55  59 W10       29.82S
MINERAL WELLS  FAIR      68  64  87 N5        29.80R
STEPHENVILLE   FAIR      70  57  64 CALM      29.84R
COMANCHE       FAIR      72  56  57 SW10      29.81R
BROWNWOOD      FAIR      66  59  77 CALM      29.85R
BRADY          FAIR      68  59  73 S8        29.89F
$$

TXZ143>147-156>162-174-175-261000-
CENTRAL TEXAS

CITY           SKY/WX    TMP DP  RH WIND       PRES   REMARKS
WACO           FAIR      77  65  66 SE8       29.78F
WACO-MCGREGOR  FAIR      74  65  73 S5        29.79S
HILLSBORO      FAIR      74  70  87 SE7       29.79R
CORSICANA      FAIR      70  66  87 NE10      29.84
MEXIA          FAIR      67  65  93 CALM      29.81F
HEARNE         FAIR      75  73  92 S6        29.84F
CAMERON        FAIR      74  70  86 S8        29.81F
TEMPLE         FAIR      74  61  63 SE10      29.77F
KILLEEN        MOCLDY    77  58  51 NW9G18    29.75R
KILLEEN-SKYLRK FAIR      74  61  63 S5        29.76F
FORT HOOD      CLOUDY    74  60  61 SE6       29.74R
GATESVILLE     FAIR      75  59  57 CALM      29.80R
HAMILTON       FAIR      73  57  57 S6        29.81R
LAMPASAS       FAIR      69  62  79 SW9       29.78F
$$

TXZ095>097-106>112-122>126-135>138-148>153-164>167-261000-
EAST TEXAS

CITY           SKY/WX    TMP DP  RH WIND       PRES   REMARKS
PARIS          FAIR      68  67  96 CALM      29.83F
SULPHUR SPRNGS FAIR      72  66  83 CALM      29.81F
GILMER         FAIR      69  65  88 CALM      29.85S
MINEOLA        FAIR      68  66  94 CALM      29.85F
TYLER          FAIR      72  69  90 SW9       29.85F
LONGVIEW       FAIR      72  71  97 CALM      29.85R
MARSHALL       FAIR      68  66  93 CALM      29.88R
ATHENS         CLOUDY    72  64  78 N3        29.87R
PALESTINE      FAIR      72  69  90 SE3       29.86S
JACKSONVILLE   FAIR      72  71  96 SW3       29.88R
HENDERSON      FAIR      72  70  91 W3        29.86R
CENTER         FAIR      72  70  93 SE6       29.84F
NACOGDOCHES      N/A     71  70  96 SW6       29.84F
LUFKIN         FAIR      71  70  96 SE3       29.83F
$$

SUPPLEMENTAL OBSERVATIONS (NWS FORT WORTH AREA)

CITY           SKY/WX    TMP DP  RH WIND       PRES   REMARKS
$$

SUPPLEMENTAL OBSERVATIONS (NWS NORMAN AREA)

CITY           SKY/WX    TMP DP  RH WIND       PRES   REMARKS
GOODLETT         N/A     68  58  69 N3        29.86F
ODELL            N/A     68  62  83 NE5       29.87F
CROWELL          N/A     69  62  77 CALM      29.85S
KNOX CITY        N/A     70  60  69 SW8       29.84F
SEYMOUR          N/A     69  60  72 W1        29.84S
$$

SUPPLEMENTAL OBSERVATIONS (NWS SAN ANGELO AREA)

CITY           SKY/WX    TMP DP  RH WIND       PRES   REMARKS
WEINERT          N/A     69  60  73 S8        29.84F
HASKELL          N/A     69  57  66 S12       29.83F
THROCKMORTON     N/A     71  58  64 SW6       29.83S
STAMFORD         N/A     70  60  70 S9        29.85F
CLYDE            N/A     70  56  60 S13       29.86F
$$

SUPPLEMENTAL OBSERVATIONS (NWS SHREVEPORT AREA)

CITY           SKY/WX    TMP DP  RH WIND       PRES   REMARKS
$$

SUPPLEMENTAL OBSERVATIONS ARE A COLLECTION OF AUTOMATED INSTRUMENTS
THAT ARE MAINTAINED BY A VARIETY OF FEDERAL AND STATE AGENCIES.
CERTAIN ELEMENTS...SUCH AS HUMIDITY VALUES AND SUSTAINED WIND
SPEEDS...MAY BE APPROXIMATED.





USA.gov is the U.S. government's official web portal to all federal, state and local government web resources and services.